Home > Time Zones > World Clock > Weather > Peru > Lima > Past weeks

Flag for Peru Weather past 2 weeks in Lima, Lima, Peru

Now
79 °F

Sunny.


Feels Like: 81 °F
Forecast: N/A
Wind: 3 mph from West

Location: Lima-Callao / Aerop. Internacional Jorgechavez

Current Time: Mar 29, 2015 at 4:30:30 PM

Latest Report: Mar 29, 2015 at 4:00 PM


Visibility: 10 mi

Pressure: 29.92 "Hg

Humidity: 70%

Dew point: 68 °F

Location of LimaLocation

Historic Weather in Lima — Graph

°F

Lima temperature yesterday

Maximum temperature yesterday: 79 °F (at 10:00 AM)
Minimum temperature yesterday: 72 °F (at 12:00 AM)
Average temperature yesterday: 74 °F

Past Weeks' High & Low Weather Summary

 TemperatureHumidityPressure
High90 °F (Mar 21, 3:00 PM)100% (Mar 29, 4:00 AM)30.01 "Hg (Mar 29, 4:00 AM)
Low68 °F (Mar 29, 4:00 AM)49% (Mar 18, 1:00 PM)29.74 "Hg (Mar 14, 5:00 PM)
Average77 °F78%29.91 "Hg
* Reported Mar 14 3:00 PM — Mar 29 3:00 PM, Lima, Weather by CustomWeather, © 2015

Note: Actual official high and low records may vary slightly from our data, if they occured in-between our weather recording intervals... More about our weather records

Advertising

Lima weather history for previous 24 hours

 ConditionsComfort  
Time TempWeatherWind HumidityBarometerVisibility
3:00 PM
Sun, Mar 29
77 °FPassing clouds.5 mph74%29.92 "HgN/A
2:00 PM77 °FPassing clouds.6 mph74%29.95 "HgN/A
1:00 PM75 °FScattered clouds.8 mph78%29.98 "HgN/A
12:00 PM75 °FBroken clouds.8 mph78%29.98 "HgN/A
11:00 AM73 °FMostly cloudy.7 mph83%29.98 "HgN/A
10:00 AM72 °FMostly cloudy.5 mph88%30.01 "Hg6 mi
9:00 AM70 °FMore clouds than sun.5 mph94%29.98 "Hg6 mi
8:00 AM68 °FFog.3 mph100%29.98 "Hg1 mi
7:00 AM68 °FFog.3 mph100%29.95 "Hg1 mi
6:00 AM70 °FFog.5 mph94%29.92 "Hg3 mi
5:00 AM70 °FMostly cloudy.5 mph94%29.89 "HgN/A
4:00 AM68 °FFog.3 mph100%29.92 "Hg3 mi
3:00 AM70 °FLow clouds.2 mph94%29.89 "Hg4 mi
2:00 AM70 °FFog.7 mph94%29.92 "Hg3 mi
1:00 AM70 °FFog.9 mph94%29.92 "Hg1 mi
12:00 AM70 °FPassing clouds.7 mph94%29.95 "Hg5 mi
11:00 PM
Sat, Mar 28
72 °FLow clouds.10 mph94%29.95 "HgN/A
10:00 PM72 °FPassing clouds.14 mph94%29.95 "HgN/A
9:00 PM73 °FPassing clouds.15 mph89%29.95 "HgN/A
8:00 PM73 °FPassing clouds.20 mph89%29.95 "HgN/A
7:00 PM73 °FPassing clouds.16 mph89%29.92 "HgN/A
6:00 PM73 °FPartly sunny.15 mph83%29.92 "HgN/A
5:00 PM73 °FPartly sunny.14 mph83%29.92 "HgN/A
4:00 PM77 °FPassing clouds.10 mph79%29.92 "HgN/A
Weather by CustomWeather, © 2015

See weather overviewHow to use our weather pages